Regional Weather Roundup
Issued by NWS Green Bay, WI

Home | Current Version | Previous Version | Graphics & Text | Print | Product List | Glossary Off
Versions: 1 2 3 4 5 6 7 8 9 10 11 12 13 14 15 16 17 18 19 20 21 22 23 24 25 26 27 28 29 30 31 32 33 34 35 36 37 38 39 40 41 42 43 44 45 46 47 48 49 50

000
ASUS43 KGRB 272010
RWRGRB

NORTH-CENTRAL AND NORTHEAST WISCONSIN REGIONAL WEATHER ROUNDUP
NATIONAL WEATHER SERVICE GREEN BAY WI
200 PM CST THU NOV 27 2014

WIZ005-009-010>012-018-019-272100-
NORTH CENTRAL WISCONSIN

CITY           SKY/WX    TMP DP  RH WIND       PRES   REMARKS
IRONWOOD       MOSUNNY    9   1  72 W8        30.31F WCI  -4
MANITOWISH WTR CLOUDY     9   1  68 NW5       30.30S WCI   1
ARBOR VITAE    CLOUDY    11   3  69 NW7       30.29S WCI   1
EAGLE RIVER    SUNNY     10  -1  63 NW6       30.28S WCI   0
LAND O LAKES   CLOUDY    11   5  75 N7        30.28S HAZE    WCI   0
RHINELANDER    PTSUNNY   10   0  63 NW7       30.29S WCI  -1
PHILLIPS       SUNNY     10  -1  60 N5        30.32F WCI   1
ANTIGO         PTSUNNY   12   1  63 N6        30.29S WCI   2
TOMAHAWK       SUNNY     11   1  63 CALM      30.31F
MERRILL        SUNNY     14   1  55 NW6       30.32S WCI   5
$$

WIZ013-073-272100-
NORTHEAST WISCONSIN

CITY           SKY/WX    TMP DP  RH WIND       PRES   REMARKS
IRON MOUNTAIN  SUNNY     13  -1  54 NW13      30.29R WCI  -2
MARINETTE      SUNNY     18   1  49 NW12      30.33R WCI   5
OCONTO         SUNNY     18   3  53 NW8       30.34S WCI   7
$$

WIZ017-030-035>037-045-272100-
CENTRAL WISCONSIN

CITY           SKY/WX    TMP DP  RH WIND       PRES   REMARKS
MEDFORD        SUNNY     11   0  61 NW5       30.32S WCI   3
WAUSAU         SUNNY     14   1  56 NW10      30.32S WCI   1
MOSINEE        SUNNY     12   7  79 W8        30.34S WCI   1
MARSHFIELD     SUNNY     10   0  63 NW9       30.35F WCI  -3
WISC RAPIDS    SUNNY     13   2  61 NW7       30.38S WCI   3
STEVENS POINT  PTSUNNY   13   3  65 W6        30.35S WCI   4
WAUPACA        MOSUNNY   21   8  57 NW9       30.36S
SHAWANO        SUNNY     19   5  53 NW8       30.34S WCI   9
CLINTONVILLE   SUNNY     18   5  57 NW9       30.34F WCI   6
$$

WIZ038-039-048-051-272100-
FOX VALLEY

CITY           SKY/WX    TMP DP  RH WIND       PRES   REMARKS
NWS GREEN BAY  SUNNY     19   6  57 NW13      30.35S WCI   6
APPLETON       PTSUNNY   18   7  62 NW9       30.34F WCI   6
OSHKOSH        MOSUNNY   17   8  67 MISG      30.34F
FOND DU LAC    SUNNY     17   7  64 NW9       30.35S WCI   6
$$

WIZ022-050-052-272100-
EAST CENTRAL WISCONSIN

CITY           SKY/WX    TMP DP  RH WIND       PRES   REMARKS
STURGEON BAY   MOSUNNY   18   3  53 NW13      30.32S WCI   4
MANITOWOC      SUNNY     20   9  62 NW12      30.34S WCI   8
SHEBOYGAN      SUNNY     18   6  59 NW10      30.33F WCI   6
$$

LMZ563-521-522-541>543-272100-
LAKESHORE

STATION/POSITION TIME  TEMP    WIND        PRES    VSBY  WAVE
                       AIR SEA DIR/SP/G                  HT/PER
                 (UTC) (F)     (DEG/KT/KT) (MB)    (MI)  (FT/S)
SHEBOYGAN LKSHOR 2000   17 34  320/  9/ 12 1028.6F
KEWAUNEE LKSHORE 2000   17     330/ 10/ 15 1026.2R
ALGOMA MARINA    1900          340/ 12/ 15   N/A
TWO RIVERS CG    1900   18 36              1027.7      6   2
NORTHPORT PIER   2000   19     320/ 13/ 19 1026.4R
N MID LAKE BUOY  2000   20 42  320/ 19/ 23 1026.3S         4/ 5
SISTER BAY LKSHO 1900          330/ 19/ 23   N/A
CHAMBERS ISLAND  2000   19     310/ 10/ 15 1026.8F
MENOMINEE LKSHOR 2000   18     300/  9/ 13 1027.7R
$$



USA.gov is the U.S. government's official web portal to all federal, state and local government web resources and services.